Flag for China Weather past 2 weeks in Kashgar, Xinjiang, China

Now
84 °F

Partly sunny.


Feels Like: 84 °F
Forecast: 72 / 91 °F
Wind: 8 mph from East

Location: Kashi Airport

Current Time: Aug 4, 2015 at 1:38:55 PM

Latest Report: Aug 4, 2015 at 1:00 PM


Visibility: 4 mi

Pressure: 29.83 "Hg (25.76 "Hg at 1298m altitude)

Humidity: 43%

Dew point: 59 °F

Location of KashgarLocation

Historic Weather in Kashgar — Graph

°F

Kashgar temperature yesterday

Maximum temperature yesterday: 86 °F (at 6:00 PM)
Minimum temperature yesterday: 75 °F (at 5:00 AM)
Average temperature yesterday: 80 °F

Past Weeks' High & Low Weather Summary

 TemperatureHumidityPressure
High100 °F (Jul 24, 6:00 PM)78% (Jul 29, 3:00 AM)30.01 "Hg (Jul 29, 3:00 AM)
Low70 °F (Jul 29, 3:00 AM)6% (Jul 24, 7:00 PM)29.62 "Hg (Jul 28, 7:00 PM)
Average85 °F29%29.83 "Hg
* Reported Jul 20 12:00 Noon — Aug 4 12:00 Noon, Kashgar, Weather by CustomWeather, © 2015

Note: Actual official high and low records may vary slightly from our data, if they occured in-between our weather recording intervals... More about our weather records

Advertising

Kashgar weather history for previous 24 hours

 ConditionsComfort  
Time TempWeatherWind HumidityBarometerVisibility
12:00 PM
Tue, Aug 4
81 °FPartly sunny.3 mph45%29.86 "Hg3 mi
11:00 AM82 °FPartly sunny.1 mph32%29.86 "Hg4 mi
10:00 AM79 °FPartly sunny.6 mph39%29.86 "Hg4 mi
9:00 AM75 °FPartly sunny.8 mph44%29.83 "Hg5 mi
8:00 AM73 °FOvercast.3 mph57%29.83 "Hg4 mi
7:00 AM73 °FOvercast.6 mph57%29.83 "Hg4 mi
6:00 AM75 °FOvercast.6 mph50%29.86 "Hg4 mi
5:00 AM77 °FOvercast.8 mph42%29.86 "Hg4 mi
4:00 AM79 °FOvercast.3 mph37%29.86 "Hg4 mi
3:00 AM79 °FClear.6 mph39%29.89 "Hg10 mi
2:00 AM77 °FClear.3 mph51%29.92 "Hg10 mi
12:00 AM79 °FWarm.8 mph51%29.95 "Hg6 mi
11:00 PM
Mon, Aug 3
81 °FOvercast.8 mph45%29.95 "Hg4 mi
10:00 PM82 °FOvercast.8 mph37%29.95 "Hg4 mi
9:00 PM84 °FScattered clouds.10 mph33%29.92 "Hg4 mi
8:00 PM86 °FPassing clouds.3 mph35%29.92 "Hg4 mi
7:00 PM86 °FClear.6 mph25%29.92 "Hg4 mi
6:00 PM86 °FScattered clouds.6 mph25%29.95 "Hg4 mi
5:00 PM84 °FClear.6 mph29%29.95 "Hg4 mi
4:00 PM84 °FClear.8 mph29%29.95 "Hg4 mi
3:00 PM84 °FClear.3 mph29%29.98 "Hg4 mi
2:00 PM84 °FClear.1 mph31%29.98 "Hg4 mi
1:00 PM82 °FScattered clouds.3 mph32%29.98 "Hg4 mi
Weather by CustomWeather, © 2015

See weather overviewHow to use our weather pages